CW6144 Weather Reports


Display with metric or nautical units.
time (UTC)temp
F
wind
direction
speed
MPH
gust
MPH
rain 1hr
in
rain 24hr
in
rain mn
in
humidity
%
barometer
mb
20260831072504 76 209 6.0 13.0 0.00 0.00 0.00 60 1019.1
20260831072003 76 201 5.0 13.0 0.00 0.00 0.00 60 1019.1
20260831071519 76 162 6.0 13.0 0.00 0.00 0.00 60 1019.2
20260831071014 76 201 5.0 13.0 0.00 0.00 0.00 61 1019.2
20260831070506 76 214 5.0 11.0 0.00 0.00 0.00 61 1019.2
20260831070024 76 202 4.0 12.0 0.00 0.00 0.00 61 1019.3
20260831065513 76 188 5.0 12.0 0.00 0.00 0.00 61 1019.4
20260831065019 76 248 4.0 11.0 0.00 0.00 0.00 61 1019.5
20260831064526 76 192 5.0 11.0 0.00 0.00 0.00 61 1019.4
20260831064012 76 133 4.0 11.0 0.00 0.00 0.00 61 1019.5
20260831063514 76 182 3.0 10.0 0.00 0.00 0.00 61 1019.6
20260831063031 76 155 5.0 12.0 0.00 0.00 0.00 61 1019.6
20260831062517 75 174 6.0 12.0 0.00 0.00 0.00 61 1019.6
20260831062017 75 192 3.0 11.0 0.00 0.00 0.00 61 1019.6
20260831061513 75 169 5.0 11.0 0.00 0.00 0.00 61 1019.6
20260831061013 75 163 4.0 9.0 0.00 0.00 0.00 61 1019.6
20260831060510 75 216 3.0 7.0 0.00 0.00 0.00 61 1019.7
20260831060019 75 189 3.0 7.0 0.00 0.00 0.00 61 1019.6
20260831055508 75 157 2.0 7.0 0.00 0.00 0.00 61 1019.6
20260831055012 75 205 2.0 10.0 0.00 0.00 0.00 61 1019.6
20260831054524 75 178 3.0 10.0 0.00 0.00 0.00 61 1019.6
20260831054014 75 144 2.0 7.0 0.00 0.00 0.00 61 1019.6
20260831053514 75 136 4.0 8.0 0.00 0.00 0.00 61 1019.5
20260831053035 76 194 3.0 8.0 0.00 0.00 0.00 61 1019.5
20260831052516 76 175 4.0 7.0 0.00 0.00 0.00 60 1019.5
20260831052016 76 165 2.0 8.0 0.00 0.00 0.00 60 1019.4
20260831051532 76 198 4.0 8.0 0.00 0.00 0.00 60 1019.3
20260831051016 76 147 3.0 7.0 0.00 0.00 0.00 60 1019.3
20260831050516 76 137 3.0 5.0 0.00 0.00 0.00 60 1019.4
20260831050017 76 208 3.0 8.0 0.00 0.00 0.00 59 1019.4
20260831045508 76 163 2.0 8.0 0.00 0.00 0.00 59 1019.4
20260831045010 76 221 3.0 8.0 0.00 0.00 0.00 59 1019.4
20260831044523 76 148 3.0 8.0 0.00 0.00 0.00 59 1019.5
20260831044013 76 159 2.0 7.0 0.00 0.00 0.00 59 1019.5
20260831043502 76 196 2.0 7.0 0.00 0.00 0.00 58 1019.5
20260831043003 76 219 2.0 9.0 0.00 0.00 0.00 58 1019.5
20260831042504 76 232 3.0 9.0 0.00 0.00 0.00 57 1019.4
20260831042004 77 207 2.0 8.0 0.00 0.00 0.00 57 1019.4
20260831041504 77 153 3.0 8.0 0.00 0.00 0.00 56 1019.4
20260831041004 77 190 3.0 7.0 0.00 0.00 0.00 57 1019.3
20260831040505 77 169 2.0 8.0 0.00 0.00 0.00 57 1019.3
20260831040009 77 189 3.0 8.0 0.00 0.00 0.00 57 1019.3
20260831035504 77 217 2.0 6.0 0.00 0.00 0.00 57 1019.2
20260831035003 77 196 2.0 6.0 0.00 0.00 0.00 57 1019.2
20260831034504 77 155 2.0 6.0 0.00 0.00 0.00 57 1019.2
20260831034003 77 201 3.0 8.0 0.00 0.00 0.00 57 1019.3
20260831033506 77 152 3.0 8.0 0.00 0.00 0.00 57 1019.3
20260831033005 77 215 3.0 8.0 0.00 0.00 0.00 57 1019.2
20260831032504 77 204 2.0 7.0 0.00 0.00 0.00 57 1019.2
20260831032004 77 136 3.0 7.0 0.00 0.00 0.00 58 1019.2
20260831031508 77 238 2.0 8.0 0.00 0.00 0.00 58 1019.1
20260831031003 77 165 3.0 8.0 0.00 0.00 0.00 58 1019.1
20260831030503 77 169 2.0 6.0 0.00 0.00 0.00 59 1019.1
20260831030005 77 128 0.0 6.0 0.00 0.00 0.00 59 1019.1
20260831025505 77 116 2.0 6.0 0.00 0.00 0.00 59 1019.1
20260831025004 77 175 2.0 7.0 0.00 0.00 0.00 60 1019.1
20260831024519 77 188 3.0 7.0 0.00 0.00 0.00 60 1019.1
20260831024006 77 188 2.0 6.0 0.00 0.00 0.00 60 1019.0
20260831023504 77 198 2.0 8.0 0.00 0.00 0.00 60 1019.0
20260831023005 77 222 4.0 8.0 0.00 0.00 0.00 60 1019.0
20260831022504 77 189 2.0 5.0 0.00 0.00 0.00 61 1019.1
20260831022004 77 203 2.0 6.0 0.00 0.00 0.00 61 1019.1
20260831021504 77 216 2.0 6.0 0.00 0.00 0.00 61 1019.0
20260831021004 77 214 2.0 3.0 0.00 0.00 0.00 61 1018.9
20260831020503 78 225 0.0 3.0 0.00 0.00 0.00 61 1018.9
20260831020008 78 192 1.0 3.0 0.00 0.00 0.00 61 1018.7
20260831015504 78 129 1.0 3.0 0.00 0.00 0.00 61 1018.7
20260831015004 78 243 1.0 2.0 0.00 0.00 0.00 61 1018.7
20260831014508 78 194 0.0 3.0 0.00 0.00 0.00 61 1018.6
20260831014003 79 189 1.0 3.0 0.00 0.00 0.00 60 1018.6
20260831013503 79 209 1.0 3.0 0.00 0.00 0.00 61 1018.5
20260831013020 79 212 1.0 4.0 0.00 0.00 0.00 60 1018.4
20260831012503 80 222 1.0 4.0 0.00 0.00 0.00 60 1018.5
20260831012002 80 205 1.0 3.0 0.00 0.00 0.00 60 1018.4
20260831011517 80 221 1.0 4.0 0.00 0.00 0.00 59 1018.4
20260831011003 81 232 1.0 4.0 0.00 0.00 0.00 59 1018.4
20260831010503 81 138 1.0 3.0 0.00 0.00 0.00 59 1018.2
20260831010013 81 198 1.0 5.0 0.00 0.00 0.00 58 1018.1
20260831005505 82 136 1.0 5.0 0.00 0.00 0.00 58 1018.2
20260831005006 82 194 2.0 5.0 0.00 0.00 0.00 58 1018.2
20260831004513 82 234 2.0 5.0 0.00 0.00 0.00 57 1018.3
20260831004008 83 147 2.0 5.0 0.00 0.00 0.00 57 1018.3
20260831003507 84 205 1.0 3.0 0.00 0.00 0.00 56 1018.3
20260831003017 84 236 1.0 6.0 0.00 0.00 0.00 55 1018.3
20260831002506 84 121 3.0 7.0 0.00 0.00 0.00 54 1018.2
20260831002007 85 176 2.0 7.0 0.00 0.00 0.00 54 1018.2
20260831001520 85 192 1.0 5.0 0.00 0.00 0.00 52 1018.2
20260831001005 85 129 1.0 4.0 0.00 0.00 0.00 51 1018.3
20260831000504 86 209 1.0 5.0 0.00 0.00 0.00 50 1018.3
20260831000013 86 134 1.0 9.0 0.00 0.00 0.00 49 1018.3
20260830235503 87 244 2.0 9.0 0.00 0.00 0.00 48 1018.4
20260830235003 87 188 3.0 9.0 0.00 0.00 0.00 47 1018.4
20260830234510 87 196 4.0 9.0 0.00 0.00 0.00 46 1018.4
20260830234005 88 209 2.0 7.0 0.00 0.00 0.00 45 1018.4
20260830233508 88 124 2.0 6.0 0.00 0.00 0.00 46 1018.3
20260830233012 88 162 2.0 7.0 0.00 0.00 0.00 45 1018.4
20260830232507 89 250 3.0 7.0 0.00 0.00 0.00 45 1018.3
20260830232008 89 153 2.0 7.0 0.00 0.00 0.00 45 1018.3
20260830231515 89 138 3.0 7.0 0.00 0.00 0.00 45 1018.3
20260830231008 89 148 2.0 8.0 0.00 0.00 0.00 45 1018.3
20260830230508 89 90 3.0 8.0 0.00 0.00 0.00 45 1018.3
20260830230015 89 108 2.0 11.0 0.00 0.00 0.00 45 1018.3
20260830225508 89 94 3.0 11.0 0.00 0.00 0.00 44 1018.3
20260830225008 89 68 5.0 10.0 0.00 0.00 0.00 44 1018.3
20260830224518 90 80 2.0 8.0 0.00 0.00 0.00 44 1018.3
20260830224008 90 136 3.0 12.0 0.00 0.00 0.00 44 1018.2
20260830223507 90 151 2.0 12.0 0.00 0.00 0.00 44 1018.3
20260830223010 91 157 4.0 7.0 0.00 0.00 0.00 44 1018.3
20260830222506 91 177 2.0 11.0 0.00 0.00 0.00 44 1018.3
20260830222006 91 140 2.0 11.0 0.00 0.00 0.00 44 1018.3
20260830221518 91 109 3.0 9.0 0.00 0.00 0.00 43 1018.3
20260830221006 91 66 3.0 9.0 0.00 0.00 0.00 43 1018.3
20260830220507 92 79 2.0 8.0 0.00 0.00 0.00 43 1018.3
20260830220018 92 111 4.0 8.0 0.00 0.00 0.00 42 1018.3
20260830215508 93 173 2.0 9.0 0.00 0.00 0.00 41 1018.3
20260830215008 93 159 3.0 9.0 0.00 0.00 0.00 41 1018.4
20260830214520 93 146 2.0 11.0 0.00 0.00 0.00 41 1018.3
20260830214008 93 134 2.0 11.0 0.00 0.00 0.00 40 1018.3
20260830213511 93 155 3.0 11.0 0.00 0.00 0.00 41 1018.4
20260830213018 93 127 3.0 12.0 0.00 0.00 0.00 40 1018.4
20260830212506 94 224 5.0 12.0 0.00 0.00 0.00 39 1018.3
20260830212010 94 222 3.0 7.0 0.00 0.00 0.00 38 1018.3
20260830211519 93 155 3.0 8.0 0.00 0.00 0.00 39 1018.4
20260830211010 93 225 4.0 8.0 0.00 0.00 0.00 37 1018.4
20260830210508 92 267 3.0 7.0 0.00 0.00 0.00 38 1018.5
20260830210020 92 142 1.0 8.0 0.00 0.00 0.00 39 1018.5
20260830205510 92 142 4.0 9.0 0.00 0.00 0.00 38 1018.6
20260830205010 93 109 2.0 9.0 0.00 0.00 0.00 38 1018.6
20260830204518 93 228 3.0 9.0 0.00 0.00 0.00 36 1018.6
20260830204008 94 187 3.0 7.0 0.00 0.00 0.00 36 1018.6
20260830203510 94 192 4.0 9.0 0.00 0.00 0.00 36 1018.7
20260830203025 95 103 3.0 9.0 0.00 0.00 0.00 36 1018.7
20260830202508 95 117 3.0 8.0 0.00 0.00 0.00 36 1018.7
20260830202010 94 217 2.0 8.0 0.00 0.00 0.00 36 1018.7
20260830201520 94 205 5.0 9.0 0.00 0.00 0.00 36 1018.8
20260830201012 94 180 3.0 10.0 0.00 0.00 0.00 36 1018.8
20260830200510 93 217 4.0 10.0 0.00 0.00 0.00 36 1018.9
20260830200017 93 191 3.0 8.0 0.00 0.00 0.00 36 1018.9
20260830195509 93 230 5.0 8.0 0.00 0.00 0.00 38 1018.9
20260830195012 93 134 5.0 8.0 0.00 0.00 0.00 37 1019.0
20260830194522 93 83 2.0 8.0 0.00 0.00 0.00 37 1019.0
20260830194008 93 176 5.0 7.0 0.00 0.00 0.00 37 1019.1
20260830193510 93 139 3.0 14.0 0.00 0.00 0.00 39 1019.1
20260830193024 92 220 3.0 14.0 0.00 0.00 0.00 39 1019.1
20260830192511 93 139 3.0 10.0 0.00 0.00 0.00 39 1019.2
20260830192010 93 226 2.0 10.0 0.00 0.00 0.00 39 1019.2
20260830191523 93 225 6.0 9.0 0.00 0.00 0.00 39 1019.2
20260830191009 92 220 3.0 9.0 0.00 0.00 0.00 40 1019.3
20260830190509 93 219 3.0 9.0 0.00 0.00 0.00 39 1019.3
20260830190032 93 228 5.0 10.0 0.00 0.00 0.00 41 1019.4
20260830185510 93 250 4.0 10.0 0.00 0.00 0.00 39 1019.5
20260830185011 93 211 3.0 8.0 0.00 0.00 0.00 40 1019.5
20260830184524 92 223 4.0 9.0 0.00 0.00 0.00 41 1019.6
20260830184011 92 180 4.0 9.0 0.00 0.00 0.00 41 1019.6
20260830183512 91 167 3.0 8.0 0.00 0.00 0.00 41 1019.7
20260830183027 91 210 4.0 7.0 0.00 0.00 0.00 42 1019.7
20260830182514 91 212 3.0 7.0 0.00 0.00 0.00 43 1019.8
20260830182013 91 173 3.0 11.0 0.00 0.00 0.00 41 1020.0
20260830181527 91 211 5.0 11.0 0.00 0.00 0.00 42 1020.1
20260830181014 91 201 3.0 12.0 0.00 0.00 0.00 42 1020.1
20260830180511 91 169 2.0 12.0 0.00 0.00 0.00 42 1020.1
20260830180028 90 164 5.0 10.0 0.00 0.00 0.00 43 1020.1
20260830175514 89 217 3.0 11.0 0.00 0.00 0.00 44 1020.2
20260830175011 89 190 6.0 11.0 0.00 0.00 0.00 45 1020.2
20260830174525 90 257 5.0 10.0 0.00 0.00 0.00 44 1020.3
20260830174010 89 219 2.0 10.0 0.00 0.00 0.00 46 1020.3
20260830173513 89 179 4.0 11.0 0.00 0.00 0.00 46 1020.4
20260830173033 89 221 5.0 11.0 0.00 0.00 0.00 45 1020.3
20260830172514 88 202 5.0 9.0 0.00 0.00 0.00 46 1020.4
20260830172012 88 249 4.0 11.0 0.00 0.00 0.00 47 1020.4
20260830171529 88 202 6.0 11.0 0.00 0.00 0.00 46 1020.6
20260830171014 88 221 6.0 11.0 0.00 0.00 0.00 46 1020.6
20260830170513 87 227 7.0 13.0 0.00 0.00 0.00 47 1020.6
20260830170028 87 217 8.0 13.0 0.00 0.00 0.00 47 1020.6
20260830165515 87 225 5.0 13.0 0.00 0.00 0.00 48 1020.6
20260830165020 86 216 7.0 14.0 0.00 0.00 0.00 47 1020.7
20260830164537 86 160 5.0 14.0 0.00 0.00 0.00 49 1020.7
20260830164014 86 194 7.0 14.0 0.00 0.00 0.00 50 1020.7
20260830163514 86 163 6.0 14.0 0.00 0.00 0.00 49 1020.8
20260830163027 85 184 7.0 14.0 0.00 0.00 0.00 50 1020.8
20260830162514 85 174 5.0 15.0 0.00 0.00 0.00 51 1020.7
20260830162012 85 187 7.0 15.0 0.00 0.00 0.00 51 1020.7
20260830161531 85 238 6.0 12.0 0.00 0.00 0.00 51 1020.8
20260830161015 85 234 7.0 11.0 0.00 0.00 0.00 51 1020.9
20260830160514 84 187 5.0 12.0 0.00 0.00 0.00 52 1020.9
20260830160030 84 222 6.0 12.0 0.00 0.00 0.00 53 1020.9
20260830155503 83 169 5.0 14.0 0.00 0.00 0.00 54 1020.8
20260830155010 83 200 8.0 15.0 0.00 0.00 0.00 54 1020.8
20260830154518 82 209 8.0 16.0 0.00 0.00 0.00 54 1020.8
20260830154006 82 215 8.0 16.0 0.00 0.00 0.00 54 1020.6
20260830153510 82 241 8.0 16.0 0.00 0.00 0.00 55 1020.6
20260830153040 82 221 9.0 15.0 0.00 0.00 0.00 54 1020.5
20260830152516 81 231 8.0 15.0 0.00 0.00 0.00 56 1020.5
20260830152013 81 234 7.0 13.0 0.00 0.00 0.00 56 1020.4
20260830151524 81 200 8.0 21.0 0.00 0.00 0.00 56 1020.4
20260830151015 81 160 10.0 17.0 0.00 0.00 0.00 56 1020.5
20260830150512 80 171 7.0 14.0 0.00 0.00 0.00 56 1020.4
20260830150009 80 178 5.0 14.0 0.00 0.00 0.00 57 1020.5
20260830145502 80 259 5.0 15.0 0.00 0.00 0.00 57 1020.5
20260830145005 80 184 6.0 16.0 0.00 0.00 0.00 57 1020.4
20260830144515 79 172 5.0 16.0 0.00 0.00 0.00 58 1020.6
20260830144008 79 172 6.0 18.0 0.00 0.00 0.00 58 1020.5
20260830143509 79 207 7.0 18.0 0.00 0.00 0.00 58 1020.5
20260830143020 79 218 5.0 12.0 0.00 0.00 0.00 58 1020.5
20260830142513 78 224 5.0 14.0 0.00 0.00 0.00 59 1020.4
20260830142009 78 228 7.0 14.0 0.00 0.00 0.00 58 1020.4
20260830141528 78 214 5.0 11.0 0.00 0.00 0.00 59 1020.4
20260830141013 78 175 6.0 11.0 0.00 0.00 0.00 58 1020.4
20260830140514 77 191 5.0 12.0 0.00 0.00 0.00 59 1020.4
20260830140029 77 202 6.0 12.0 0.00 0.00 0.00 59 1020.4
20260830135514 77 207 5.0 13.0 0.00 0.00 0.00 59 1020.5
20260830135014 76 233 5.0 13.0 0.00 0.00 0.00 59 1020.5
20260830134515 76 165 4.0 8.0 0.00 0.00 0.00 60 1020.6
20260830134006 76 202 3.0 7.0 0.00 0.00 0.00 61 1020.5
20260830133508 75 209 2.0 7.0 0.00 0.00 0.00 62 1020.6
20260830133032 75 195 3.0 8.0 0.00 0.00 0.00 61 1020.6
20260830132507 75 204 4.0 8.0 0.00 0.00 0.00 61 1020.6
20260830132014 74 223 2.0 9.0 0.00 0.00 0.00 61 1020.6
20260830131536 74 217 4.0 9.0 0.00 0.00 0.00 62 1020.7
20260830131010 74 202 3.0 7.0 0.00 0.00 0.00 62 1020.7
20260830130516 73 147 3.0 9.0 0.00 0.00 0.00 62 1020.7
20260830130026 73 202 4.0 9.0 0.00 0.00 0.00 62 1020.7
20260830125513 73 171 3.0 9.0 0.00 0.00 0.00 62 1020.7
20260830125015 73 192 4.0 9.0 0.00 0.00 0.00 63 1020.6
20260830124532 73 217 4.0 9.0 0.00 0.00 0.00 63 1020.4
20260830124017 73 175 3.0 7.0 0.00 0.00 0.00 63 1020.4
20260830123519 72 194 3.0 9.0 0.00 0.00 0.00 63 1020.3
20260830123014 72 224 4.0 9.0 0.00 0.00 0.00 63 1020.3
20260830122507 72 174 3.0 9.0 0.00 0.00 0.00 62 1020.2
20260830122010 72 204 3.0 9.0 0.00 0.00 0.00 62 1020.2
20260830121523 72 242 3.0 8.0 0.00 0.00 0.00 62 1020.2
20260830121010 72 145 3.0 10.0 0.00 0.00 0.00 62 1020.2
20260830120510 72 181 3.0 10.0 0.00 0.00 0.00 63 1020.1
20260830120026 72 211 4.0 9.0 0.00 0.00 0.00 62 1020.1
20260830115512 72 177 3.0 9.0 0.00 0.00 0.00 63 1020.0
20260830115014 72 171 5.0 10.0 0.00 0.00 0.00 63 1020.0
20260830114530 72 151 3.0 10.0 0.00 0.00 0.00 63 1019.9
20260830114018 72 188 4.0 10.0 0.00 0.00 0.00 63 1019.8
20260830113517 72 165 4.0 10.0 0.00 0.00 0.00 63 1019.8
20260830113032 71 202 4.0 10.0 0.00 0.00 0.00 63 1019.7
20260830112516 71 171 4.0 9.0 0.00 0.00 0.00 63 1019.6
20260830112010 71 190 3.0 9.0 0.00 0.00 0.00 63 1019.7
20260830111524 71 188 3.0 8.0 0.00 0.00 0.00 63 1019.6
20260830111010 71 199 3.0 8.0 0.00 0.00 0.00 63 1019.6
20260830110510 71 227 2.0 9.0 0.00 0.00 0.00 63 1019.6
20260830110026 71 210 4.0 9.0 0.00 0.00 0.00 63 1019.6
20260830105514 71 179 4.0 9.0 0.00 0.00 0.00 63 1019.7
20260830105013 71 206 3.0 9.0 0.00 0.00 0.00 63 1019.7
20260830104530 71 200 3.0 9.0 0.00 0.00 0.00 63 1019.6
20260830104018 71 194 2.0 9.0 0.00 0.00 0.00 63 1019.7
20260830103516 71 173 4.0 10.0 0.00 0.00 0.00 63 1019.8
20260830103030 71 184 4.0 10.0 0.00 0.00 0.00 63 1019.7
20260830102517 71 200 3.0 9.0 0.00 0.00 0.00 63 1019.7
20260830102018 71 197 4.0 8.0 0.00 0.00 0.00 62 1019.6
20260830101530 71 202 3.0 9.0 0.00 0.00 0.00 62 1019.7
20260830101019 71 217 4.0 11.0 0.00 0.00 0.00 62 1019.8
20260830100509 71 203 4.0 12.0 0.00 0.00 0.00 62 1019.8
20260830100026 71 196 5.0 12.0 0.00 0.00 0.00 63 1019.8
20260830095511 71 198 3.0 9.0 0.00 0.00 0.00 63 1019.7
20260830095003 71 241 4.0 9.0 0.00 0.00 0.00 63 1019.8
20260830094507 71 184 3.0 10.0 0.00 0.00 0.00 63 1019.8
20260830094002 71 174 3.0 10.0 0.00 0.00 0.00 62 1019.8
20260830093505 71 193 4.0 8.0 0.00 0.00 0.00 62 1019.8
20260830093008 71 144 4.0 7.0 0.00 0.00 0.00 62 1019.8
20260830092506 71 175 3.0 9.0 0.00 0.00 0.00 62 1019.8
20260830092008 71 194 3.0 9.0 0.00 0.00 0.00 62 1019.7
20260830091534 71 231 4.0 8.0 0.00 0.00 0.00 62 1019.7
20260830091007 71 177 3.0 6.0 0.00 0.00 0.00 62 1019.7
20260830090509 71 206 3.0 8.0 0.00 0.00 0.00 62 1019.6
20260830090023 71 180 2.0 8.0 0.00 0.00 0.00 61 1019.7
20260830085509 71 154 2.0 6.0 0.00 0.00 0.00 61 1019.7
20260830085010 71 186 3.0 6.0 0.00 0.00 0.00 61 1019.7
20260830084526 71 111 3.0 6.0 0.00 0.00 0.00 60 1019.7
20260830084014 71 196 3.0 6.0 0.00 0.00 0.00 60 1019.7
20260830083505 71 189 0.0 4.0 0.00 0.00 0.00 61 1019.7
20260830083008 71 136 2.0 4.0 0.00 0.00 0.00 60 1019.7
20260830082503 71 198 0.0 4.0 0.00 0.00 0.00 60 1019.6
20260830082004 71 171 2.0 7.0 0.00 0.00 0.00 60 1019.6
20260830081517 71 153 1.0 7.0 0.00 0.00 0.00 60 1019.6
20260830081004 71 169 1.0 6.0 0.00 0.00 0.00 60 1019.7
20260830080508 71 173 1.0 5.0 0.00 0.00 0.00 60 1019.7
20260830080016 72 183 1.0 4.0 0.00 0.00 0.00 60 1019.7
20260830075510 72 148 1.0 5.0 0.00 0.00 0.00 59 1019.7
20260830075012 72 152 1.0 7.0 0.00 0.00 0.00 59 1019.7
20260830074541 72 196 3.0 7.0 0.00 0.00 0.00 59 1019.8
20260830074015 72 206 2.0 5.0 0.00 0.00 0.00 59 1019.9
20260830073513 72 248 2.0 9.0 0.00 0.00 0.00 59 1019.9
20260830073028 72 148 1.0 9.0 0.00 0.00 0.00 59 1019.9